Location: Unspecified
(43.3830°N, 0.0000°E)
Time: 14:41:41
(UTC+00:00)

FORTE - Visible Passes

Search period start: 04 April 2026 00:00
Search period end: 14 April 2026 00:00
Orbit: 784 x 814 km, 70.0° (Epoch: 28 March)

Date Brightness Start Highest point End Pass type
(mag) Time Alt. Az. Time Alt. Az. Time Alt. Az.
4 Apr 9.0 01:31:48 23° N 01:31:48 23° N 01:34:13 10° NNE visible
5 Apr 9.2 01:04:07 23° N 01:04:07 23° N 01:06:14 10° NNE visible
6 Apr 9.3 00:36:23 21° NNE 00:36:23 21° NNE 00:38:13 10° NNE visible
6 Apr 9.5 02:17:15 12° NW 02:17:15 12° NW 02:19:18 10° NNW visible
7 Apr 9.4 00:08:37 19° NNE 00:08:37 19° NNE 00:10:08 10° NNE visible
7 Apr 9.4 01:49:29 15° NW 01:49:29 15° NW 01:51:54 10° N visible
7 Apr 9.5 23:40:49 17° NNE 23:40:49 17° NNE 23:42:00 10° NNE visible
8 Apr 9.3 01:21:42 17° NNW 01:21:42 17° NNW 01:24:14 10° N visible
8 Apr 9.5 23:13:00 14° NE 23:13:00 14° NE 23:13:48 10° NE visible
9 Apr 9.2 00:53:52 20° NNW 00:53:52 20° NNW 00:56:27 10° N visible
9 Apr 9.6 22:45:08 12° NE 22:45:08 12° NE 22:45:33 10° NE visible
10 Apr 9.2 00:26:00 23° NNW 00:26:00 23° NNW 00:28:34 10° N visible
10 Apr 9.1 23:58:05 25° N 23:58:05 25° N 00:00:37 10° NNE visible
11 Apr 8.9 23:30:06 26° N 23:30:06 26° N 23:32:38 10° NNE visible
12 Apr 9.7 01:11:41 10° NW 01:11:59 10° NW 01:12:17 10° NNW visible
12 Apr 8.8 23:02:04 28° NNE 23:02:04 28° NNE 23:04:35 10° NNE visible
13 Apr 9.6 00:42:55 12° NW 00:43:32 13° NW 00:45:53 10° NNW visible
13 Apr 8.6 22:33:56 29° NNE 22:33:56 29° NNE 22:36:29 10° NNE visible
